Back to catalog

OPS 8464

TRANSIT 5B-7

AliveNavigationPO
NORAD 1514·PAYLOAD·🇺🇸 United States

Launched Aug 13, 1965 from Vandenberg Space Force Base

Loading…

Next Passes (next 24 hours)

TLE

FreshSource: Space-Track

Epoch: Sep 14, 2026, 08:23 UTC

1 01514U 65065F   26257.34971860  .00000057  00000-0  94677-4 0  9992
2 01514  89.9998 227.8790 0067837 269.7371 248.6629 13.35380815973166

Track OPS 8464 in real time with AllMySat

Download on the App Store